Погода в Елливаре

Швеция     67°08′06″N   20°39′12″E
темп.,
°C
ветер,
м/с
пор.,
м/с
влажн.,
%
обл.,
%
осадки,
мм/ч
давл.,
гПа
погр.,
м
29 июня, ср
ср2923:00+17ююв38790 0.0 1022260
02:00+15ююв24890 0.0 102298
05:00+17ююв25770 0.0 1021187
08:00+21ююв46655 0.0 1020653
11:00+24ююв5755100 0.0 10191490
14:00+25ю6849100 0.1 10181964
17:00+25ю5750100 0.0 10171917
20:00+21ююз4868100 0.5 1017316
30 июня, чт
чт3023:00+18ююз2287100 0.3 101848
02:00+16зюз1194100 0.3 101911
05:00+17з128273 0.0 102092
08:00+21з125472 0.0 1020548
11:00+24юз24465 0.0 10201272
14:00+27юз344393 0.0 10192130
17:00+24ю125714 0.1 1019411
20:00+20ююв118121 2.0 101922
1 июля, пт
пт123:00+19ююз2587100 2.1 1020108
02:00+17ююз1187100 2.4 102011
05:00+18ю138790 0.0 1019106
08:00+21ююз357139 0.0 1019608
11:00+25ююз465318 0.0 10191552
14:00+27ююз564573 0.0 10182079
17:00+24ююз485590 0.1 1017755
20:00+23ююз485326 0.1 1017666
2 июля, сб
сб223:00+18ююв236471 0.0 101747
02:00+16ююз11670 0.0 101716
05:00+18ю23690 0.0 1016110
08:00+22ююз59622 0.0 10151017
11:00+23ююз696380 0.2 10141361
14:00+21ю5978100 1.8 1013923
17:00+23ю597034 1.3 10121174
20:00+21ююз4870100 1.8 1011842
3 июля, вс
вс323:00+18ю4118178 0.0 1011595
02:00+15ююв279714 0.0 1010238
05:00+17ю259359 0.0 1009267
08:00+20ююз466910 0.0 1008917
11:00+23ююз56435 0.0 10081686
14:00+24юз56410 0.0 10072009
17:00+23юз56382 0.0 10072181
20:00+22з144663 0.0 1007847